This demonstration page uses our WeatherBlox Daily Observations layout. Learn more.

Left ArrowRight Arrow

34.16533, -84.80231

Hourly Observations for August 10, 2019

Temp ( °F °C ) Dew Point ( °F °C ) Humidity (%) Winds ( mph kmh ) Pressure ( in mb ) Visibility ( mi km ) Precip ( " mm )
12:53 am 00:53 Clear 75 23.9 72 22.2 90 90 Calm 29.91 1013 10 16 0.00 0.00
1:53 am 01:53 Clear 75 23.9 72 22.2 90 90 Calm 29.90 1013 10 16 0.00 0.00
2:53 am 02:53 Clear 74 23.3 72 22.2 94 94 Calm 29.90 1012 10 16 0.00 0.00
3:53 am 03:53 Clear 74 23.3 72 22.2 94 94 Calm 29.90 1012 10 16 0.00 0.00
4:53 am 04:53 Clear 74 23.3 71 21.7 91 91 Calm 29.90 1012 9 14 0.00 0.00
5:53 am 05:53 Clear 73 22.8 71 21.7 94 94 Calm 29.91 1013 8 13 0.00 0.00
6:53 am 06:53 Clear 74 23.3 71 21.7 91 91 Calm 29.91 1013 8 13 0.00 0.00
7:53 am 07:53 Sunny 74 23.3 72 22.2 94 94 Calm 29.93 1014 7 11 0.00 0.00
8:53 am 08:53 Partly Cloudy 79 26.1 73 22.8 82 82 Calm 29.95 1014 9 14 0.00 0.00
9:53 am 09:53 Sunny 83 28.3 74 23.3 74 74 Calm 29.94 1014 10 16 0.00 0.00
10:53 am 10:53 Mostly Sunny 87 30.6 75 23.9 67 67 Calm 29.95 1014 10 16 0.00 0.00
11:51 am 11:51 Mostly Cloudy 88 31 75 24 66 66 VRB 5 7 29.94 1014 10 16 0.00 0.00
11:53 am 11:53 Mostly Cloudy 89 31.7 74 23.3 61 61 VRB 3 6 29.95 1014 10 16 0.00 0.00
12:02 pm 12:02 Partly Cloudy 89 31.7 74 23.3 61 61 VRB 5 7 29.94 1014 10 16 0.00 0.00
12:53 pm 12:53 Mostly Cloudy 91 32.8 74 23.3 57 57 Calm 29.94 1014 10 16 0.00 0.00
1:53 pm 13:53 Mostly Sunny 93 33.9 73 22.8 52 52 VRB 5 7 29.91 1013 10 16 0.00 0.00
2:53 pm 14:53 Mostly Sunny 92 33.3 71 21.7 51 51 Calm 29.88 1012 10 16 0.00 0.00
3:53 pm 15:53 Partly Cloudy 92 33.3 71 21.7 51 51 VRB 3 6 29.86 1011 10 16 0.00 0.00
4:53 pm 16:53 Mostly Sunny 93 33.9 71 21.7 49 49 VRB 3 6 29.85 1011 10 16 0.00 0.00
5:53 pm 17:53 Sunny 90 32.2 72 22.2 56 56 N 10 17 29.85 1011 10 16 0.00 0.00
6:53 pm 18:53 Sunny 90 32.2 71 21.7 54 54 NNE 5 7 29.86 1011 10 16 0.00 0.00
7:53 pm 19:53 Sunny 88 31.1 72 22.2 59 59 Calm 29.87 1011 10 16 0.00 0.00
8:53 pm 20:53 Clear 80 26.7 74 23.3 82 82 Calm 29.89 1012 10 16 0.00 0.00
9:53 pm 21:53 Clear 80 26.7 73 22.8 79 79 Calm 29.90 1013 10 16 0.00 0.00
10:53 pm 22:53 Clear 78 25.6 73 22.8 85 85 Calm 29.91 1013 10 16 0.00 0.00
11:53 pm 23:53 Clear 78 25.6 73 22.8 85 85 Calm 29.91 1013 10 16 0.00 0.00

Powered by AerisWeather